Location: El Portezuelo
(28.4984°N, 16.3589°W)
Time: 00:10:39
(UTC+00:00)

STARLINK-23 - Pass Details

Date: 20 January 2020
Orbit: 528 x 531 km, 53.0° (Epoch: 23 February)

Event Time Altitude Azimuth Distance (km) Brightness Sun altitude
Exits shadow 06:18:01 36° 4° (N) 842 4.4 -21.9°
Drops below altitude 10° 06:20:44 10° 30° (NNE) 1,773 6.4 -21.3°
Sets 06:23:01 0° 36° (NE) 2,666 7.4 -20.8°
